Weather in Sukhodol

Russia / Volgograd Oblast     48°37′01″N   44°53′23″E
temp.,
°C
wind,
m/s
gust,
m/s
humid.,
%
clouds,
%
prec.,
mm/h
press.,
hPa
HPBL,
m
1 august, sun
sun100:00+26sse33260 0.0 101016
03:00+24s12310 0.0 101119
06:00+26se23270 0.0 101183
09:00+34sse45160 0.0 10121257
12:00+37sse54130 0.0 10113513
15:00+38sse42120 0.0 10103886
18:00+37sse32120 0.0 10092925
21:00+29e33180 0.0 101013
2 august, mon
mon200:00+27se12303 0.0 101013
03:00+26wsw22280 0.0 101011
06:00+28ese22338 0.0 101159
09:00+35se332783 0.0 10111119
12:00+38sse54197 0.0 10103580
15:00+39s541762 0.0 10094165
18:00+36s44205 0.0 10092413
21:00+28nw58364 0.1 1011140
3 august, tue
tue300:00+28e343811 0.0 100944
03:00+28sse333482 0.0 101039
06:00+29ssw23335 0.0 101187
09:00+37s55143 0.0 1010991
12:00+40ssw77923 0.0 10103570
15:00+40ssw6690 0.0 10083903
18:00+39ssw5690 0.0 10083517
21:00+31s47150 0.0 100880
4 august, wed
wed400:00+29ssw441611 0.0 100851
03:00+26s1120100 0.0 100811
06:00+26nnw6114686 0.0 1010310
09:00+27nw565074 0.3 1012509
12:00+35nnw442710 0.0 10111735
15:00+37nw762444 0.0 10112832
18:00+34nnw5526100 0.0 10111680
21:00+28nnw612345 0.0 1013368
5 august, thu
thu500:00+25n613425 0.0 1014415
03:00+23n410500 0.0 1015284
06:00+23n5950100 0.0 1015302
09:00+29n6633100 0.0 10161296
12:00+32n66210 0.0 10152510
15:00+33n76180 0.0 10142848
18:00+32n5520100 0.0 10142361
21:00+25nne33308 0.0 101522